User: anonymous   Login
Location: Nashville
(36.1660°N, 86.7840°W)
Time: 04:40:01
(UTC-05:00)
Language:

EO-88 - Orbit

View from above orbital plane
View from above orbital plane
View from above satellite
View from above satellite

Ground track
Ground track

The orbit data is extracted from the following two-line orbital elements,

1 42017U 17008BX  22135.75615097  .00023802  00000-0  73565-3 0  9997
2 42017  97.2710 202.3644 0004699  23.5977 336.5480 15.33506313292062
Epoch (UTC): 15 May 2022 18:08:51
Eccentricity: 0.0004699
inclination: 97.2710°
perigee height: 462 km
apogee height: 468 km
right ascension of ascending node: 202.3644°
argument of perigee: 23.5977°
revolutions per day: 15.33506313
mean anomaly at epoch: 336.5480°
orbit number at epoch: 29206

The dashed part of the orbit path shows where the satellite is in the earth's shadow,  

DLR